map of CEG home
CEG - Airport
Location
City:  Chester, Flintshire, England, United Kingdom
Near (Alt.):Broughton
Name:Hawarden Airport
ICAO:EGNR
IATA:CEG

Details
Type:Airport (Aerodrome, Airfield)
Use:Public/Civil
Latitude:5310'41"N (53.178056)
Longitude:258'40"W (-2.977777)
Datum:WGS 1984
Elevation:45 ft (14 m)
Variation:1.57W (WMM2015 magnetic declination)
0.16 annual change
Runways:1
Longest:6702 × 148 ft (2043 × 45 m), paved

Time
Time Zone:UTC+0 (DST+1)
Local Time:

Weather
METAR:EGNR 211750Z 32011KT 9999 SCT010 12/08 Q1030

Related Locations
Nearby:
Farthest:NZBA: 11854 mi / 19077 km
Balclutha, OTA, NZ

Find:

   beyond  
but within

Other Information
Maps:
NOTAMs:
Links:
Sources:

  
  • flag of United Kingdom
  • flag of England
  

Sectional Chart

Flight Planning
at skyvector.com

Satellite Image

Google Maps Satellite view

 

Copyright © 2004-2018 Karl L. Swartz. All rights reserved.
The Great Circle Mapper name and logo are trademarks of the Great Circle Mapper.
All other trademarks mentioned herein belong to their respective owners.
Please see credits for attibutions and further copyright information.

  Follow gcmap on Facebook Follow gcmap on Twitter Follow gcmap on Google+ GCmap on LinkedIn

hCard Microformat

Geo Microformat